SCP
0 0 0 0 0 0 0 0 0 0 0 0 0 0 0 0 0 0 0 0 0 0 0 0 0 0 0 0 0 0 0 0 0 0 0 0 0 0 0 0 0 0 0
0 0 0 0 0 0 0 0 0 0 0 0 0 0 0 0 0 0 0 0 0 0 0 0 0 0 0 0 0 0 0 0 0 0 0 0 0 0 0 0 0 0 0
0 0 0 0 0 0 0 0 0 0 0 0 0 0 0 0 0 0 0 0 0 0 0 0 0 0 0 0 0 0 0 0 0 0 0 0 0 0 0 0 0 0 0
0 0 0 0 0 0 0 0 0 0 0 0 0 0 0 0 0 0 0 0 0 0 0 0 0 0 0 0 0 0 0 0 0 0 0 0 0 0 0 0 0 0 0
0 0 0 0 0 0 0 0 0 0 0 0 0 0 0 0 0 0 0 0 0 0 0 0 0 0 0 0 0 -0 0 0 0 0 0 0 0 0 0 0 0 0 0
0 0 0 0 0 0 0 0 0 0 0 0 0 0 0 0 0 0 0 0 0 0 0 0 0 0 0 0 0 0 0 0 0 0 0 0 0 0 0 0 0 0 0
0 0 0 0 0 0 0 0 0 0 0 0 0 0 0 0 0 0 0 0 0 0 0 0 0 0 0 0 0 0 0 0 0 0 0 0 0 0 0 0 0 0 0
0 0 0 0 0 0 0 0 0 0 0 0 0 0 0 0 0 0 0 0 0 0 0 0 0 0 0 0 0 0 0 0 0 0 0 0 0 0 0 0 0 0 0
0 0 0 0 0 0 0 0 0 0 0 0 0 0 0 0 0 0 0 0 0 0 0 0 0 0 0 0 0 0 0 0 0 0 0 0 0 0 0 0 0 0 0
0 0 0 0 0 0 0 0 0 0 0 0 0 0 0 0 0 0 0 0 0 0 0 0 0 0 0 0 0 0 0 0 0 0 0 0 0 0 0 0 0 0 0
0 0 0 0 0 0 0 0 0 0 0 0 0 0 0 0 0 0 0 0 0 0 0 0 0 0 0 0 0 0 0 0 0 0 0 0 0 0 0 0 0 0 0
0 0 0 0 0 0 0 0 0 0 0 0 0 0 0 0 0 0 0 0 0 0 0 0 0 0 0 0 0 0 0 0 0 0 0 0 0 0 0 0 0 0 0
0 0 0 0 0 0 0 0 0 0 0 0 0 0 0 0 0 0 0 0 0 0 0 0 0 0 0 0 0 0 0 0 0 0 0 0 0 0 0 0 0 0 0
0 0 0 0 0 0 0 0 0 0 0 0 0 0 0 0 0 0 0 0 0 0 0 0 0 0 0 0 0 0 0 0 0 0 0 0 0 0 0 0 0 0 0
0 0 0 0 0 0 0 0 0 0 0 0 0 0 0 0 0 0 0 0 0 0 0 0 0 0 0 0 0 0 0 0 0 0 0 0 0 0 0 0 0 0 0
0 0 0 0 0 0 0 0 0 0 0 0 0 0 0 0 0 0 0 0 0 0 0 0 0 0 0 0 0 0 0 0 0 0 0 0 0 0 0 0 0 0 0
0 0 0 0 0 0 0 0 0 0 0 0 0 0 0 0 0 0 0 0 0 0 0 0 0 0 0 0 0 0 0 0 0 0 0 0 0 0 0 0 0 0 0
0 0 0 0 0 0 0 0 0 0 0 0 0 0 0 0 0 0 0 0 0 0 0 0 0 0 0 0 0 0 0 0 0 0 0 0 0 0 0 0 0 0 0
0 0 0 0 0 0 0 0 0 0 0 0 0 0 0 0 0 0 0 0 0 0 0 0 0 0 0 0 0 0 0 0 0 0 0 0 0 0 0 0 0 0 0
0 0 0 0 0 0 0 0 0 0 0 0 0 0 0 0 0 0 0 0 0 0 0 0 0 0 0 0 0 0 0 0 0 0 0 0 0 0 0 0 0 0 0
0 0 0 0 0 0 0 0 0 0 0 0 0 0 0 0 0 0 0 0 0 0 0 0 0 0 0 0 0 0 0 0 0 0 0 0 0 0 0 0 0 0 0
0 0 0 0 0 0 0 0 0 0 0 0 0 0 0 0 0 0 0 0 0 0 0 0 0 0 0 0 0 0 0 0 0 0 0 0 0 0 0 0 0 0 0
0 0 0 0 0 0 0 0 0 0 0 0 0 0 0 0 0 0 0 0 0 0 0 0 0 0 0 0 0 0 0 0 0 0 0 0 0 0 0 0 0 0 0
0 0 0 0 0 0 0 0 0 0 0 0 0 0 0 0 0 0 0 0 0 0 0 0 0 0 0 0 0 0 0 0 0 0 0 0 0 0 0 0 0 0 0
0 0 0 0 0 0 0 0 0 0 0 0 0 0 0 0 0 0 0 0 0 0 0 0 0 0 0 0 0 0 0 0 0 0 0 0 0 0 0 0 0 0 0
0 0 0 0 0 0 0 0 0 0 0 0 0 0 0 0 0 0 0 0 0 0 0 0 0 0 0 0 0 0 0 0 0 0 0 0 0 0 0 0 0 0 0
Wind_Speed_500mb
101 97 90 82 74 68 69 70 70 65 63 61 59 57 55 55 55 54 54 48 50 51 50 54 51 50 53 55 55 54 60 51 70 77 69 70 64 59 59 65 60 60 62
85 90 86 80 74 71 70 66 63 61 59 57 56 53 54 51 47 45 46 47 49 50 53 54 52 45 54 55 50 52 52 49 51 65 67 68 56 66 60 59 56 57 59
78 79 80 78 75 70 64 59 57 56 56 52 50 48 44 41 42 42 43 44 45 44 45 52 47 50 56 53 52 52 51 51 60 72 80 70 67 62 63 58 57 55 53
69 72 74 74 72 66 58 55 55 51 48 46 45 41 39 38 38 40 41 42 45 47 51 52 56 58 61 61 55 61 60 63 66 65 58 61 60 59 57 52 49 47 45
73 73 73 70 64 59 58 55 50 48 45 41 38 37 36 37 37 38 40 41 42 44 46 47 48 52 49 51 55 55 55 59 56 47 50 54 55 51 48 46 44 42 41
70 70 70 67 66 64 60 55 50 46 42 40 39 39 40 39 40 39 38 37 39 42 43 41 41 42 43 41 37 36 37 38 39 43 51 48 45 40 38 40 38 35 36
73 74 73 73 71 66 58 53 49 46 44 45 46 44 44 41 40 37 36 35 35 33 33 34 35 36 33 29 33 33 30 35 36 37 35 32 34 30 30 32 35 37 39
78 78 78 76 69 62 58 53 51 50 49 49 49 46 46 42 39 37 33 30 27 26 27 25 23 23 21 22 24 25 26 28 28 24 21 23 22 21 22 22 25 26 28
88 88 82 75 70 64 60 57 55 54 53 53 51 49 46 39 36 34 28 22 23 23 20 16 16 15 13 13 14 19 23 22 23 23 12 17 16 20 18 16 13 14 16
98 89 83 77 72 66 61 58 57 57 54 52 49 46 44 37 35 32 28 25 23 20 19 20 20 21 21 22 23 22 21 18 16 14 15 17 14 16 12 9 10 16 19
99 94 88 81 74 67 62 62 59 58 53 50 48 46 41 35 32 30 29 27 23 17 14 17 18 19 20 19 21 16 15 12 9 7 5 6 8 8 8 6 5 7 9
103 98 92 85 76 70 67 63 62 60 56 54 48 44 37 35 32 29 23 20 17 14 15 16 19 16 16 18 16 14 9 7 6 6 6 5 6 7 3 4 8 13 18
110 105 98 87 80 74 69 68 67 63 60 56 50 45 40 36 29 22 18 18 20 20 21 19 18 15 15 13 11 11 8 5 6 8 10 11 13 10 9 16 18 25 29
116 109 100 91 84 75 71 69 68 67 63 55 51 48 43 37 32 30 26 24 24 23 23 21 19 17 15 13 13 11 8 7 7 10 11 13 16 16 24 33 39 43 43
115 110 102 95 86 79 74 72 67 61 55 52 50 47 45 43 37 31 30 28 26 25 24 22 21 21 19 15 12 11 9 9 10 12 13 17 23 29 33 37 38 42 46
121 117 110 99 88 81 79 73 64 57 57 51 45 42 40 33 35 35 32 30 28 27 27 25 25 22 19 15 11 7 5 6 8 12 17 22 29 34 38 40 44 46 48
127 123 111 102 93 91 86 85 82 69 60 54 53 50 43 39 41 37 36 34 34 31 30 30 28 24 19 14 10 7 5 6 7 10 13 19 25 32 37 40 42 43 45
125 121 110 101 94 93 91 90 85 79 74 65 58 52 50 44 41 40 38 38 39 34 31 29 25 20 16 12 9 5 2 4 8 11 16 22 28 33 37 40 42 46 48
116 108 106 96 98 95 95 90 84 73 68 65 64 60 53 48 44 41 38 37 38 37 34 28 23 20 16 12 7 2 2 7 12 17 21 25 30 36 40 43 46 48 49
106 102 98 98 95 93 91 91 85 74 71 71 69 68 67 61 58 54 46 44 41 36 32 28 24 20 16 11 6 1 5 10 14 18 23 28 32 36 40 44 46 49 50
93 90 92 90 92 93 100 92 83 78 78 77 71 66 59 59 58 54 52 47 39 35 32 27 23 19 14 9 5 4 7 11 16 21 25 30 35 38 42 45 47 49 50
85 89 89 89 96 100 94 89 85 82 79 75 70 65 61 58 56 56 52 47 43 38 32 27 23 19 15 11 9 9 10 15 19 23 29 33 36 39 42 43 44 46 47
75 79 84 87 88 89 88 86 82 80 76 73 72 70 69 65 60 56 52 47 42 37 32 28 24 20 17 15 13 14 16 19 23 29 33 37 39 41 43 43 43 44 44
65 71 76 81 84 89 87 84 77 72 70 70 71 71 68 64 59 55 49 45 40 37 34 30 26 23 21 18 18 19 23 27 31 36 39 41 42 42 42 42 42 42 42
54 62 68 73 77 77 74 71 71 74 76 75 73 69 65 61 56 52 47 45 41 39 34 30 27 24 22 22 24 27 29 34 40 43 43 42 43 43 42 40 39 38 38
47 52 58 63 66 67 70 73 75 76 73 69 66 63 58 56 50 49 46 44 40 36 34 30 27 27 27 29 31 34 37 40 43 48 46 42 40 40 40 38 37 36 36
Wind_Direction_500mb
236 237 234 233 235 238 239 241 242 244 246 248 250 252 255 256 256 256 258 260 257 260 263 267 271 281 280 282 281 284 286 290 283 296 302 302 308 304 311 308 301 293 292
234 234 231 230 231 234 238 240 239 239 240 242 244 247 250 253 258 256 258 258 260 262 263 267 266 270 272 277 287 282 280 288 285 291 298 299 299 305 304 302 295 298 291
237 228 225 226 229 233 235 235 232 230 232 235 239 244 249 253 255 256 260 259 261 260 262 262 267 261 267 271 275 275 278 272 284 288 286 287 295 298 303 299 301 299 292
222 217 219 222 227 229 225 222 223 225 228 233 240 247 251 255 257 259 262 265 265 265 269 270 270 269 271 273 264 276 279 279 284 285 285 289 294 299 295 301 300 300 292
215 219 222 222 220 217 215 214 216 223 229 236 241 245 248 249 251 253 255 257 260 264 266 268 269 270 271 271 276 287 292 292 291 296 297 301 299 297 299 296 298 298 290
213 214 213 212 210 206 208 212 218 223 229 235 239 241 243 244 248 253 256 261 265 268 270 271 271 269 272 276 279 280 290 296 302 298 292 292 293 295 296 295 288 290 279
216 213 208 202 201 204 208 214 218 225 231 235 236 238 239 241 249 253 258 262 266 270 275 279 276 275 272 266 269 279 284 281 282 286 288 291 294 305 306 308 302 293 284
210 205 200 200 203 206 210 216 223 229 232 235 236 235 235 239 244 252 260 266 273 276 271 273 274 271 277 273 280 267 259 263 278 280 297 303 305 316 324 318 303 288 284
208 202 201 204 206 209 215 220 227 231 233 233 232 231 234 236 244 252 256 261 266 262 262 257 246 256 258 265 271 267 260 259 261 280 298 320 326 332 326 317 306 293 276
211 206 207 208 211 214 219 226 231 233 229 227 227 229 233 233 231 236 246 251 249 253 254 252 238 244 252 259 263 262 254 249 260 282 306 316 313 319 326 318 285 286 283
212 211 210 210 213 217 223 228 229 226 222 222 223 225 225 227 226 227 229 236 238 237 229 239 248 254 260 253 250 244 253 243 228 244 239 263 284 281 266 277 302 290 270
211 212 211 212 214 218 224 225 222 218 215 217 214 215 217 217 216 216 220 217 215 216 210 231 243 241 238 237 231 218 195 172 175 178 204 253 207 180 152 327 298 288 286
211 210 211 212 215 219 222 220 215 210 209 208 208 210 211 206 202 199 187 186 188 205 215 208 219 209 192 174 162 159 168 190 216 225 223 221 218 208 246 266 279 287 285
211 210 211 212 213 215 217 215 211 206 202 204 206 206 200 197 194 195 192 194 197 205 205 194 193 188 188 192 184 190 200 212 225 238 241 245 226 252 273 284 292 302 305
211 210 209 210 211 211 211 209 207 206 206 207 204 202 198 196 192 196 195 194 194 194 193 185 180 179 182 187 188 188 192 209 225 236 241 245 259 278 292 298 303 303 303
211 210 208 208 206 206 203 200 198 202 195 189 191 194 190 192 197 187 188 188 190 190 183 176 177 177 176 179 179 179 194 229 254 263 268 273 280 286 291 294 297 299 302
214 209 207 205 204 201 198 198 192 188 189 186 186 187 190 194 188 183 183 183 182 187 181 183 184 183 177 172 177 187 211 249 280 289 294 292 293 295 298 302 303 302 301
213 212 207 203 202 200 199 197 196 192 186 184 184 186 183 184 185 186 186 186 181 182 187 186 181 177 170 165 159 152 145 333 323 313 306 305 304 303 304 304 304 304 305
209 207 205 206 202 200 198 195 195 192 189 186 180 179 182 182 186 189 188 190 188 184 182 175 167 164 161 159 158 156 321 325 326 321 316 312 309 307 306 305 304 304 303
205 205 203 199 198 198 198 196 192 188 186 187 185 183 180 182 182 185 186 189 186 178 173 168 167 166 164 165 166 225 315 320 320 318 317 315 313 311 309 307 305 303 301
203 203 203 200 200 201 200 196 192 190 189 188 187 187 189 189 188 188 187 184 179 175 173 169 170 170 169 175 197 254 292 309 316 318 318 318 315 313 309 307 306 304 302
203 201 201 202 203 201 196 193 193 192 192 190 184 183 185 185 181 181 180 179 176 177 175 175 176 180 189 205 229 254 281 301 310 315 317 315 312 310 308 307 305 303 303
204 202 198 198 198 195 193 194 195 196 193 187 186 184 179 177 179 180 180 179 179 179 180 183 190 200 211 224 242 268 288 299 305 309 310 309 310 309 308 307 306 305 305
201 200 199 196 194 194 194 194 195 194 189 184 181 179 178 178 180 181 182 183 185 187 190 197 206 216 227 240 260 277 288 297 304 307 308 309 308 308 307 306 304 303 303
203 203 201 199 197 196 194 193 190 185 182 180 179 180 179 180 181 184 187 192 194 198 203 212 222 234 248 262 274 281 289 298 302 303 306 307 306 305 305 305 305 303 302
198 199 198 198 196 193 190 186 182 180 180 180 181 181 182 185 187 194 198 203 207 212 218 226 238 250 259 269 277 285 293 298 301 302 302 302 299 298 298 299 300 300 297
Wind_Speed_850mb
101 97 90 82 74 68 69 70 70 65 63 61 59 57 55 55 55 54 54 48 50 51 50 54 51 50 53 55 55 54 60 51 70 77 69 70 64 59 59 65 60 60 62
85 90 86 80 74 71 70 66 63 61 59 57 56 53 54 51 47 45 46 47 49 50 53 54 52 45 54 55 50 52 52 49 51 65 67 68 56 66 60 59 56 57 59
78 79 80 78 75 70 64 59 57 56 56 52 50 48 44 41 42 42 43 44 45 44 45 52 47 50 56 53 52 52 51 51 60 72 80 70 67 62 63 58 57 55 53
69 72 74 74 72 66 58 55 55 51 48 46 45 41 39 38 38 40 41 42 45 47 51 52 56 58 61 61 55 61 60 63 66 65 58 61 60 59 57 52 49 47 45
73 73 73 70 64 59 58 55 50 48 45 41 38 37 36 37 37 38 40 41 42 44 46 47 48 52 49 51 55 55 55 59 56 47 50 54 55 51 48 46 44 42 41
70 70 70 67 66 64 60 55 50 46 42 40 39 39 40 39 40 39 38 37 39 42 43 41 41 42 43 41 37 36 37 38 39 43 51 48 45 40 38 40 38 35 36
73 74 73 73 71 66 58 53 49 46 44 45 46 44 44 41 40 37 36 35 35 33 33 34 35 36 33 29 33 33 30 35 36 37 35 32 34 30 30 32 35 37 39
78 78 78 76 69 62 58 53 51 50 49 49 49 46 46 42 39 37 33 30 27 26 27 25 23 23 21 22 24 25 26 28 28 24 21 23 22 21 22 22 25 26 28
88 88 82 75 70 64 60 57 55 54 53 53 51 49 46 39 36 34 28 22 23 23 20 16 16 15 13 13 14 19 23 22 23 23 12 17 16 20 18 16 13 14 16
98 89 83 77 72 66 61 58 57 57 54 52 49 46 44 37 35 32 28 25 23 20 19 20 20 21 21 22 23 22 21 18 16 14 15 17 14 16 12 9 10 16 19
99 94 88 81 74 67 62 62 59 58 53 50 48 46 41 35 32 30 29 27 23 17 14 17 18 19 20 19 21 16 15 12 9 7 5 6 8 8 8 6 5 7 9
103 98 92 85 76 70 67 63 62 60 56 54 48 44 37 35 32 29 23 20 17 14 15 16 19 16 16 18 16 14 9 7 6 6 6 5 6 7 3 4 8 13 18
110 105 98 87 80 74 69 68 67 63 60 56 50 45 40 36 29 22 18 18 20 20 21 19 18 15 15 13 11 11 8 5 6 8 10 11 13 10 9 16 18 25 29
116 109 100 91 84 75 71 69 68 67 63 55 51 48 43 37 32 30 26 24 24 23 23 21 19 17 15 13 13 11 8 7 7 10 11 13 16 16 24 33 39 43 43
115 110 102 95 86 79 74 72 67 61 55 52 50 47 45 43 37 31 30 28 26 25 24 22 21 21 19 15 12 11 9 9 10 12 13 17 23 29 33 37 38 42 46
121 117 110 99 88 81 79 73 64 57 57 51 45 42 40 33 35 35 32 30 28 27 27 25 25 22 19 15 11 7 5 6 8 12 17 22 29 34 38 40 44 46 48
127 123 111 102 93 91 86 85 82 69 60 54 53 50 43 39 41 37 36 34 34 31 30 30 28 24 19 14 10 7 5 6 7 10 13 19 25 32 37 40 42 43 45
125 121 110 101 94 93 91 90 85 79 74 65 58 52 50 44 41 40 38 38 39 34 31 29 25 20 16 12 9 5 2 4 8 11 16 22 28 33 37 40 42 46 48
116 108 106 96 98 95 95 90 84 73 68 65 64 60 53 48 44 41 38 37 38 37 34 28 23 20 16 12 7 2 2 7 12 17 21 25 30 36 40 43 46 48 49
106 102 98 98 95 93 91 91 85 74 71 71 69 68 67 61 58 54 46 44 41 36 32 28 24 20 16 11 6 1 5 10 14 18 23 28 32 36 40 44 46 49 50
93 90 92 90 92 93 100 92 83 78 78 77 71 66 59 59 58 54 52 47 39 35 32 27 23 19 14 9 5 4 7 11 16 21 25 30 35 38 42 45 47 49 50
85 89 89 89 96 100 94 89 85 82 79 75 70 65 61 58 56 56 52 47 43 38 32 27 23 19 15 11 9 9 10 15 19 23 29 33 36 39 42 43 44 46 47
75 79 84 87 88 89 88 86 82 80 76 73 72 70 69 65 60 56 52 47 42 37 32 28 24 20 17 15 13 14 16 19 23 29 33 37 39 41 43 43 43 44 44
65 71 76 81 84 89 87 84 77 72 70 70 71 71 68 64 59 55 49 45 40 37 34 30 26 23 21 18 18 19 23 27 31 36 39 41 42 42 42 42 42 42 42
54 62 68 73 77 77 74 71 71 74 76 75 73 69 65 61 56 52 47 45 41 39 34 30 27 24 22 22 24 27 29 34 40 43 43 42 43 43 42 40 39 38 38
47 52 58 63 66 67 70 73 75 76 73 69 66 63 58 56 50 49 46 44 40 36 34 30 27 27 27 29 31 34 37 40 43 48 46 42 40 40 40 38 37 36 36
Wind_Direction_850mb
236 237 234 233 235 238 239 241 242 244 246 248 250 252 255 256 256 256 258 260 257 260 263 267 271 281 280 282 281 284 286 290 283 296 302 302 308 304 311 308 301 293 292
234 234 231 230 231 234 238 240 239 239 240 242 244 247 250 253 258 256 258 258 260 262 263 267 266 270 272 277 287 282 280 288 285 291 298 299 299 305 304 302 295 298 291
237 228 225 226 229 233 235 235 232 230 232 235 239 244 249 253 255 256 260 259 261 260 262 262 267 261 267 271 275 275 278 272 284 288 286 287 295 298 303 299 301 299 292
222 217 219 222 227 229 225 222 223 225 228 233 240 247 251 255 257 259 262 265 265 265 269 270 270 269 271 273 264 276 279 279 284 285 285 289 294 299 295 301 300 300 292
215 219 222 222 220 217 215 214 216 223 229 236 241 245 248 249 251 253 255 257 260 264 266 268 269 270 271 271 276 287 292 292 291 296 297 301 299 297 299 296 298 298 290
213 214 213 212 210 206 208 212 218 223 229 235 239 241 243 244 248 253 256 261 265 268 270 271 271 269 272 276 279 280 290 296 302 298 292 292 293 295 296 295 288 290 279
216 213 208 202 201 204 208 214 218 225 231 235 236 238 239 241 249 253 258 262 266 270 275 279 276 275 272 266 269 279 284 281 282 286 288 291 294 305 306 308 302 293 284
210 205 200 200 203 206 210 216 223 229 232 235 236 235 235 239 244 252 260 266 273 276 271 273 274 271 277 273 280 267 259 263 278 280 297 303 305 316 324 318 303 288 284
208 202 201 204 206 209 215 220 227 231 233 233 232 231 234 236 244 252 256 261 266 262 262 257 246 256 258 265 271 267 260 259 261 280 298 320 326 332 326 317 306 293 276
211 206 207 208 211 214 219 226 231 233 229 227 227 229 233 233 231 236 246 251 249 253 254 252 238 244 252 259 263 262 254 249 260 282 306 316 313 319 326 318 285 286 283
212 211 210 210 213 217 223 228 229 226 222 222 223 225 225 227 226 227 229 236 238 237 229 239 248 254 260 253 250 244 253 243 228 244 239 263 284 281 266 277 302 290 270
211 212 211 212 214 218 224 225 222 218 215 217 214 215 217 217 216 216 220 217 215 216 210 231 243 241 238 237 231 218 195 172 175 178 204 253 207 180 152 327 298 288 286
211 210 211 212 215 219 222 220 215 210 209 208 208 210 211 206 202 199 187 186 188 205 215 208 219 209 192 174 162 159 168 190 216 225 223 221 218 208 246 266 279 287 285
211 210 211 212 213 215 217 215 211 206 202 204 206 206 200 197 194 195 192 194 197 205 205 194 193 188 188 192 184 190 200 212 225 238 241 245 226 252 273 284 292 302 305
211 210 209 210 211 211 211 209 207 206 206 207 204 202 198 196 192 196 195 194 194 194 193 185 180 179 182 187 188 188 192 209 225 236 241 245 259 278 292 298 303 303 303
211 210 208 208 206 206 203 200 198 202 195 189 191 194 190 192 197 187 188 188 190 190 183 176 177 177 176 179 179 179 194 229 254 263 268 273 280 286 291 294 297 299 302
214 209 207 205 204 201 198 198 192 188 189 186 186 187 190 194 188 183 183 183 182 187 181 183 184 183 177 172 177 187 211 249 280 289 294 292 293 295 298 302 303 302 301
213 212 207 203 202 200 199 197 196 192 186 184 184 186 183 184 185 186 186 186 181 182 187 186 181 177 170 165 159 152 145 333 323 313 306 305 304 303 304 304 304 304 305
209 207 205 206 202 200 198 195 195 192 189 186 180 179 182 182 186 189 188 190 188 184 182 175 167 164 161 159 158 156 321 325 326 321 316 312 309 307 306 305 304 304 303
205 205 203 199 198 198 198 196 192 188 186 187 185 183 180 182 182 185 186 189 186 178 173 168 167 166 164 165 166 225 315 320 320 318 317 315 313 311 309 307 305 303 301
203 203 203 200 200 201 200 196 192 190 189 188 187 187 189 189 188 188 187 184 179 175 173 169 170 170 169 175 197 254 292 309 316 318 318 318 315 313 309 307 306 304 302
203 201 201 202 203 201 196 193 193 192 192 190 184 183 185 185 181 181 180 179 176 177 175 175 176 180 189 205 229 254 281 301 310 315 317 315 312 310 308 307 305 303 303
204 202 198 198 198 195 193 194 195 196 193 187 186 184 179 177 179 180 180 179 179 179 180 183 190 200 211 224 242 268 288 299 305 309 310 309 310 309 308 307 306 305 305
201 200 199 196 194 194 194 194 195 194 189 184 181 179 178 178 180 181 182 183 185 187 190 197 206 216 227 240 260 277 288 297 304 307 308 309 308 308 307 306 304 303 303
203 203 201 199 197 196 194 193 190 185 182 180 179 180 179 180 181 184 187 192 194 198 203 212 222 234 248 262 274 281 289 298 302 303 306 307 306 305 305 305 305 303 302
198 199 198 198 196 193 190 186 182 180 180 180 181 181 182 185 187 194 198 203 207 212 218 226 238 250 259 269 277 285 293 298 301 302 302 302 299 298 298 299 300 300 297